| time (UTC) | temp F | wind direction | speed MPH | gust MPH | rain 1hr in | rain 24hr in | rain mn in | humidity % | barometer mb |
| 20260510174229 | 55 | 101 | 1.0 | 2.0 | 0.00 | 0.00 | 0.00 | 49 | 1004.6 |
| 20260510173229 | 55 | 0.0 | 0.0 | 0.00 | 0.00 | 0.00 | 52 | 1004.8 | |
| 20260510172221 | 56 | 0.0 | 0.0 | 0.00 | 0.00 | 0.00 | 53 | 1004.7 | |
| 20260510171230 | 58 | 29 | 1.0 | 2.0 | 0.00 | 0.00 | 0.00 | 52 | 1005.0 |
| 20260510170229 | 58 | 28 | 2.0 | 5.0 | 0.00 | 0.00 | 0.00 | 49 | 1005.0 |
| 20260510165250 | 58 | 70 | 0.0 | 2.0 | 0.00 | 0.00 | 0.00 | 47 | 1005.4 |
| 20260510164230 | 58 | 149 | 3.0 | 5.0 | 0.00 | 0.00 | 0.00 | 48 | 1005.4 |
| 20260510163250 | 58 | 156 | 1.0 | 5.0 | 0.00 | 0.00 | 0.00 | 47 | 1005.4 |
| 20260510162222 | 57 | 102 | 0.0 | 2.0 | 0.00 | 0.00 | 0.00 | 47 | 1005.3 |
| 20260510161230 | 56 | 53 | 2.0 | 5.0 | 0.00 | 0.00 | 0.00 | 48 | 1005.7 |
| 20260510160230 | 55 | 108 | 0.0 | 2.0 | 0.00 | 0.00 | 0.00 | 50 | 1005.8 |
| 20260510155231 | 55 | 6 | 1.0 | 2.0 | 0.00 | 0.00 | 0.00 | 52 | 1006.0 |
| 20260510154250 | 56 | 70 | 2.0 | 5.0 | 0.00 | 0.00 | 0.00 | 53 | 1006.4 |
| 20260510153229 | 57 | 332 | 6.0 | 10.0 | 0.00 | 0.00 | 0.00 | 50 | 1006.4 |
| 20260510152230 | 57 | 48 | 0.0 | 2.0 | 0.00 | 0.00 | 0.00 | 50 | 1006.6 |
| 20260510151250 | 57 | 355 | 1.0 | 2.0 | 0.00 | 0.00 | 0.00 | 50 | 1006.8 |
| 20260510150221 | 57 | 0 | 2.0 | 5.0 | 0.00 | 0.00 | 0.00 | 49 | 1006.7 |
| 20260510145229 | 57 | 9 | 1.0 | 5.0 | 0.00 | 0.00 | 0.00 | 46 | 1006.9 |
| 20260510144221 | 57 | 117 | 3.0 | 5.0 | 0.00 | 0.00 | 0.00 | 47 | 1007.1 |
| 20260510143230 | 57 | 129 | 2.0 | 5.0 | 0.00 | 0.00 | 0.00 | 48 | 1007.1 |
| 20260510142221 | 56 | 11 | 3.0 | 8.0 | 0.00 | 0.00 | 0.00 | 47 | 1007.4 |
| 20260510141229 | 56 | 17 | 2.0 | 5.0 | 0.00 | 0.00 | 0.00 | 46 | 1007.4 |
| 20260510140242 | 57 | 52 | 1.0 | 2.0 | 0.00 | 0.00 | 0.00 | 49 | 1007.4 |
| 20260510135231 | 57 | 308 | 1.0 | 5.0 | 0.00 | 0.00 | 0.00 | 48 | 1007.4 |
| 20260510134221 | 56 | 128 | 2.0 | 5.0 | 0.00 | 0.00 | 0.00 | 44 | 1007.4 |
| 20260510133230 | 56 | 20 | 3.0 | 5.0 | 0.00 | 0.00 | 0.00 | 47 | 1007.8 |
| 20260510132221 | 56 | 12 | 1.0 | 5.0 | 0.00 | 0.00 | 0.00 | 47 | 1008.1 |
| 20260510131230 | 57 | 36 | 2.0 | 5.0 | 0.00 | 0.00 | 0.00 | 47 | 1008.1 |
| 20260510130221 | 57 | 38 | 1.0 | 2.0 | 0.00 | 0.00 | 0.00 | 49 | 1008.1 |
| 20260510125229 | 57 | 44 | 2.0 | 5.0 | 0.00 | 0.00 | 0.00 | 45 | 1008.1 |
| 20260510124224 | 56 | 97 | 0.0 | 2.0 | 0.00 | 0.00 | 0.00 | 46 | 1008.1 |
| 20260510123229 | 57 | 3 | 1.0 | 2.0 | 0.00 | 0.00 | 0.00 | 49 | 1008.5 |
| 20260510122221 | 57 | 22 | 3.0 | 5.0 | 0.00 | 0.00 | 0.00 | 50 | 1008.5 |
| 20260510121229 | 57 | 26 | 2.0 | 5.0 | 0.00 | 0.00 | 0.00 | 46 | 1008.5 |
| 20260510120222 | 57 | 46 | 1.0 | 2.0 | 0.00 | 0.00 | 0.00 | 45 | 1008.5 |
| 20260510115230 | 56 | 70 | 1.0 | 2.0 | 0.00 | 0.00 | 0.00 | 48 | 1008.8 |
| 20260510114221 | 56 | 62 | 1.0 | 2.0 | 0.00 | 0.00 | 0.00 | 51 | 1008.8 |
| 20260510113229 | 56 | 45 | 2.0 | 5.0 | 0.00 | 0.00 | 0.00 | 49 | 1009.0 |
| 20260510112222 | 56 | 137 | 2.0 | 5.0 | 0.00 | 0.00 | 0.00 | 51 | 1008.8 |
| 20260510111229 | 56 | 163 | 2.0 | 5.0 | 0.00 | 0.00 | 0.00 | 50 | 1009.1 |
| 20260510110221 | 55 | 307 | 3.0 | 5.0 | 0.00 | 0.00 | 0.00 | 52 | 1009.1 |
| 20260510105249 | 54 | 123 | 4.0 | 5.0 | 0.00 | 0.00 | 0.00 | 48 | 1009.4 |
| 20260510104241 | 53 | 79 | 3.0 | 5.0 | 0.00 | 0.00 | 0.00 | 55 | 1009.4 |
| 20260510103255 | 53 | 8 | 1.0 | 2.0 | 0.00 | 0.00 | 0.00 | 56 | 1009.4 |
| 20260510102221 | 54 | 341 | 6.0 | 10.0 | 0.00 | 0.00 | 0.00 | 58 | 1009.8 |
| 20260510101249 | 54 | 139 | 1.0 | 2.0 | 0.00 | 0.00 | 0.00 | 58 | 1009.8 |
| 20260510100221 | 54 | 51 | 3.0 | 5.0 | 0.00 | 0.00 | 0.00 | 57 | 1010.1 |
| 20260510095229 | 53 | 67 | 2.0 | 5.0 | 0.00 | 0.00 | 0.00 | 55 | 1010.0 |
| 20260510094221 | 53 | 59 | 2.0 | 2.0 | 0.00 | 0.00 | 0.00 | 59 | 1010.1 |
| 20260510093229 | 53 | 25 | 6.0 | 13.0 | 0.00 | 0.00 | 0.00 | 59 | 1010.1 |
| 20260510092229 | 53 | 77 | 1.0 | 2.0 | 0.00 | 0.00 | 0.00 | 58 | 1010.1 |
| 20260510090829 | 52 | 141 | 2.0 | 8.0 | 0.00 | 0.00 | 0.00 | 59 | 1010.4 |
| 20260510085842 | 53 | 82 | 2.0 | 5.0 | 0.00 | 0.00 | 0.00 | 59 | 1010.4 |
| 20260510084829 | 53 | 77 | 2.0 | 8.0 | 0.00 | 0.00 | 0.00 | 63 | 1010.4 |
| 20260510083821 | 53 | 63 | 1.0 | 2.0 | 0.00 | 0.00 | 0.00 | 62 | 1010.5 |
| 20260510082830 | 52 | 141 | 3.0 | 5.0 | 0.00 | 0.00 | 0.00 | 60 | 1010.4 |
| 20260510081821 | 52 | 25 | 1.0 | 2.0 | 0.00 | 0.00 | 0.00 | 69 | 1010.4 |
| 20260510080829 | 52 | 29 | 1.0 | 2.0 | 0.00 | 0.00 | 0.00 | 71 | 1010.4 |
| 20260510075821 | 52 | 27 | 2.0 | 5.0 | 0.00 | 0.00 | 0.00 | 69 | 1010.4 |
| 20260510074829 | 51 | 36 | 2.0 | 5.0 | 0.00 | 0.00 | 0.00 | 69 | 1010.4 |
| 20260510073821 | 51 | 0.0 | 0.0 | 0.00 | 0.00 | 0.00 | 69 | 1010.8 | |
| 20260510072849 | 50 | 34 | 2.0 | 5.0 | 0.00 | 0.00 | 0.00 | 72 | 1010.4 |
| 20260510071821 | 50 | 7 | 2.0 | 5.0 | 0.00 | 0.00 | 0.00 | 74 | 1010.4 |
| 20260510070829 | 50 | 68 | 0.0 | 2.0 | 0.00 | 0.00 | 0.00 | 72 | 1010.4 |
| 20260510065821 | 49 | 67 | 2.0 | 5.0 | 0.00 | 0.00 | 0.00 | 75 | 1010.4 |
| 20260510064830 | 49 | 73 | 1.0 | 2.0 | 0.00 | 0.00 | 0.00 | 74 | 1010.4 |
| 20260510063821 | 48 | 0.0 | 0.0 | 0.00 | 0.00 | 0.00 | 77 | 1010.7 | |
| 20260510062829 | 46 | 0.0 | 0.0 | 0.00 | 0.00 | 0.00 | 79 | 1010.4 | |
| 20260510061821 | 45 | 293 | 2.0 | 5.0 | 0.00 | 0.00 | 0.00 | 82 | 1010.4 |
| 20260510060850 | 43 | 43 | 0.0 | 2.0 | 0.00 | 0.00 | 0.00 | 85 | 1010.4 |
| 20260510055821 | 43 | 0.0 | 0.0 | 0.00 | 0.00 | 0.00 | 89 | 1010.4 | |
| 20260510054829 | 42 | 37 | 1.0 | 2.0 | 0.00 | 0.00 | 0.00 | 90 | 1010.3 |
| 20260510053901 | 42 | 42 | 1.0 | 2.0 | 0.00 | 0.00 | 0.00 | 91 | 1010.4 |
| 20260510052829 | 42 | 28 | 1.0 | 2.0 | 0.00 | 0.00 | 0.00 | 92 | 1010.4 |
| 20260510051822 | 42 | 49 | 0.0 | 2.0 | 0.00 | 0.00 | 0.00 | 92 | 1010.4 |
| 20260510050830 | 42 | 201 | 1.0 | 2.0 | 0.00 | 0.00 | 0.00 | 92 | 1010.4 |
| 20260510045821 | 42 | 0.0 | 0.0 | 0.00 | 0.00 | 0.00 | 92 | 1010.4 | |
| 20260510044829 | 42 | 38 | 0.0 | 2.0 | 0.00 | 0.00 | 0.00 | 92 | 1010.4 |
| 20260510043841 | 42 | 0.0 | 0.0 | 0.00 | 0.00 | 0.00 | 93 | 1010.4 | |
| 20260510042830 | 42 | 0.0 | 0.0 | 0.00 | 0.00 | 0.00 | 92 | 1010.4 | |
| 20260510041821 | 42 | 0.0 | 0.0 | 0.00 | 0.00 | 0.00 | 92 | 1010.4 | |
| 20260510040829 | 42 | 17 | 1.0 | 2.0 | 0.00 | 0.00 | 0.00 | 92 | 1010.1 |
| 20260510035910 | 43 | 45 | 0.0 | 2.0 | 0.00 | 0.00 | 0.00 | 92 | 1010.2 |
| 20260510034830 | 43 | 0.0 | 0.0 | 0.00 | 0.00 | 0.00 | 92 | 1010.2 | |
| 20260510033821 | 43 | 28 | 0.0 | 2.0 | 0.00 | 0.00 | 0.00 | 91 | 1010.4 |
| 20260510032830 | 44 | 6 | 0.0 | 2.0 | 0.00 | 0.00 | 0.00 | 90 | 1010.6 |
| 20260510031830 | 44 | 16 | 1.0 | 2.0 | 0.00 | 0.00 | 0.00 | 90 | 1010.8 |
| 20260510030829 | 45 | 60 | 0.0 | 2.0 | 0.00 | 0.00 | 0.00 | 89 | 1010.8 |
| 20260510025821 | 45 | 282 | 2.0 | 5.0 | 0.00 | 0.00 | 0.00 | 89 | 1010.8 |
| 20260510024829 | 46 | 29 | 0.0 | 2.0 | 0.00 | 0.00 | 0.00 | 88 | 1010.8 |
| 20260510023849 | 46 | 1 | 1.0 | 2.0 | 0.00 | 0.00 | 0.00 | 87 | 1010.8 |
| 20260510022829 | 46 | 24 | 1.0 | 2.0 | 0.00 | 0.00 | 0.00 | 87 | 1010.8 |
| 20260510021821 | 46 | 51 | 0.0 | 2.0 | 0.00 | 0.00 | 0.00 | 87 | 1010.8 |
| 20260510020850 | 46 | 60 | 0.0 | 2.0 | 0.00 | 0.00 | 0.00 | 87 | 1010.9 |
| 20260510015850 | 46 | 283 | 2.0 | 5.0 | 0.00 | 0.00 | 0.00 | 87 | 1010.9 |
| 20260510014829 | 46 | 18 | 1.0 | 2.0 | 0.00 | 0.00 | 0.00 | 87 | 1010.5 |
| 20260510013821 | 47 | 98 | 1.0 | 5.0 | 0.00 | 0.00 | 0.00 | 87 | 1010.6 |
| 20260510012829 | 47 | 53 | 0.0 | 2.0 | 0.00 | 0.00 | 0.00 | 87 | 1010.7 |
| 20260510011829 | 47 | 61 | 1.0 | 2.0 | 0.00 | 0.00 | 0.00 | 86 | 1010.7 |
| 20260510010850 | 47 | 15 | 2.0 | 2.0 | 0.00 | 0.00 | 0.00 | 86 | 1010.9 |
| 20260510005821 | 47 | 56 | 1.0 | 2.0 | 0.00 | 0.00 | 0.00 | 86 | 1010.9 |
| 20260510004829 | 47 | 57 | 1.0 | 2.0 | 0.00 | 0.00 | 0.00 | 86 | 1010.9 |
| 20260510003829 | 47 | 56 | 2.0 | 5.0 | 0.00 | 0.00 | 0.00 | 86 | 1010.9 |
| 20260510002829 | 47 | 16 | 1.0 | 5.0 | 0.00 | 0.00 | 0.00 | 86 | 1010.9 |
| 20260510001821 | 47 | 0.0 | 0.0 | 0.00 | 0.00 | 0.00 | 86 | 1010.9 | |
| 20260510000829 | 47 | 0.0 | 0.0 | 0.00 | 0.00 | 0.00 | 86 | 1010.9 | |
| 20260509235829 | 47 | 37 | 4.0 | 8.0 | 0.00 | 0.00 | 0.00 | 86 | 1010.9 |
| 20260509234849 | 47 | 51 | 0.0 | 2.0 | 0.00 | 0.00 | 0.00 | 87 | 1010.9 |
| 20260509233821 | 47 | 12 | 5.0 | 8.0 | 0.00 | 0.00 | 0.00 | 87 | 1010.9 |
| 20260509232829 | 47 | 286 | 1.0 | 2.0 | 0.00 | 0.00 | 0.00 | 87 | 1011.0 |
| 20260509231849 | 47 | 0.0 | 0.0 | 0.00 | 0.00 | 0.00 | 87 | 1011.0 | |
| 20260509230829 | 47 | 299 | 1.0 | 2.0 | 0.00 | 0.00 | 0.00 | 87 | 1011.1 |
| 20260509225821 | 47 | 31 | 2.0 | 5.0 | 0.00 | 0.00 | 0.00 | 87 | 1010.9 |
| 20260509224829 | 47 | 57 | 1.0 | 5.0 | 0.00 | 0.00 | 0.00 | 87 | 1010.9 |
| 20260509223909 | 47 | 4 | 5.0 | 5.0 | 0.00 | 0.00 | 0.00 | 87 | 1010.8 |
| 20260509222829 | 47 | 328 | 3.0 | 5.0 | 0.00 | 0.00 | 0.00 | 88 | 1010.8 |
| 20260509221821 | 48 | 13 | 3.0 | 8.0 | 0.00 | 0.00 | 0.00 | 89 | 1010.8 |
| 20260509220829 | 48 | 331 | 2.0 | 5.0 | 0.00 | 0.00 | 0.00 | 89 | 1010.8 |
| 20260509215829 | 48 | 34 | 0.0 | 2.0 | 0.00 | 0.00 | 0.00 | 89 | 1010.8 |
| 20260509214849 | 48 | 5 | 1.0 | 5.0 | 0.00 | 0.00 | 0.00 | 89 | 1010.8 |
| 20260509213821 | 48 | 44 | 0.0 | 2.0 | 0.00 | 0.00 | 0.00 | 89 | 1010.8 |
| 20260509212829 | 48 | 30 | 2.0 | 2.0 | 0.00 | 0.00 | 0.00 | 89 | 1010.7 |
| 20260509211829 | 48 | 30 | 2.0 | 5.0 | 0.00 | 0.00 | 0.00 | 90 | 1010.7 |
| 20260509210909 | 48 | 115 | 1.0 | 2.0 | 0.00 | 0.00 | 0.00 | 91 | 1010.5 |
| 20260509205901 | 48 | 5 | 3.0 | 5.0 | 0.00 | 0.00 | 0.00 | 91 | 1010.5 |
| 20260509204829 | 48 | 25 | 1.0 | 2.0 | 0.00 | 0.00 | 0.00 | 92 | 1010.6 |
| 20260509203829 | 48 | 57 | 1.0 | 2.0 | 0.00 | 0.00 | 0.00 | 92 | 1010.5 |
| 20260509202829 | 48 | 34 | 1.0 | 5.0 | 0.00 | 0.00 | 0.00 | 93 | 1010.5 |
| 20260509201821 | 49 | 336 | 3.0 | 5.0 | 0.00 | 0.00 | 0.00 | 94 | 1010.5 |
| 20260509200829 | 49 | 71 | 1.0 | 2.0 | 0.00 | 0.00 | 0.00 | 94 | 1010.3 |
| 20260509195849 | 49 | 37 | 1.0 | 8.0 | 0.00 | 0.00 | 0.00 | 94 | 1010.1 |
| 20260509194829 | 49 | 7 | 2.0 | 2.0 | 0.00 | 0.00 | 0.00 | 94 | 1010.1 |
| 20260509193820 | 49 | 32 | 2.0 | 5.0 | 0.00 | 0.00 | 0.00 | 94 | 1010.1 |
| 20260509192829 | 49 | 0.0 | 0.0 | 0.00 | 0.00 | 0.00 | 94 | 1009.8 | |
| 20260509191829 | 49 | 315 | 3.0 | 5.0 | 0.00 | 0.00 | 0.00 | 94 | 1009.8 |
| 20260509190909 | 49 | 45 | 1.0 | 2.0 | 0.00 | 0.00 | 0.00 | 94 | 1009.8 |
| 20260509185821 | 49 | 38 | 1.0 | 2.0 | 0.00 | 0.00 | 0.00 | 94 | 1009.8 |
| 20260509184829 | 49 | 289 | 2.0 | 5.0 | 0.00 | 0.00 | 0.00 | 93 | 1009.8 |
| 20260509183830 | 50 | 41 | 4.0 | 8.0 | 0.00 | 0.00 | 0.00 | 93 | 1009.8 |
| 20260509182828 | 50 | 347 | 3.0 | 5.0 | 0.00 | 0.00 | 0.00 | 93 | 1009.8 |
| 20260509181820 | 50 | 258 | 1.0 | 5.0 | 0.00 | 0.00 | 0.00 | 93 | 1009.4 |
| 20260509180829 | 50 | 6 | 2.0 | 2.0 | 0.00 | 0.00 | 0.00 | 92 | 1009.3 |
| 20260509175829 | 51 | 0.0 | 0.0 | 0.00 | 0.00 | 0.00 | 92 | 1009.4 |